Simultaneous Nadir Overpasses (SNOs) Predictions

Prediction of SNOs between GOES-17 and NOAA-20 Satellite Orbit:

Table of predicted SNOs for the next 14.0 days since TLE Epoch: 6/1/2024
Index Date Time (GOES-17) GOES-17 Lat,Lon NOAA-20 Lat,Lon Distance(km) Time Diff (sec)
1 06/03/2024 08:27:00 -0.01,-104.72 0.13,-105.19 54.20 80
2 06/04/2024 08:05:34 -0.01,-104.72 -0.93,-100.65 463.32 80
3 06/05/2024 20:27:26 0.01,-104.72 -0.25,-105.95 139.47 80
4 06/06/2024 20:11:19 0.01,-104.72 0.75,-101.40 377.93 80
5 06/08/2024 08:33:03 -0.02,-104.72 0.42,-106.66 221.36 80
6 06/09/2024 08:11:35 -0.02,-104.72 -0.58,-102.12 296.23 80
7 06/10/2024 20:33:28 0.01,-104.73 -0.58,-107.42 306.14 80
8 06/11/2024 20:17:20 0.00,-104.73 0.42,-102.87 211.92 80
9 06/13/2024 08:36:25 -0.00,-104.74 0.74,-108.14 386.29 80
10 06/14/2024 08:20:17 0.00,-104.75 -0.27,-103.59 131.85 80
